Thompson, Manitoba

7:47 AM CDT on May 24, 2017 (GMT -0500)
Thompson

Weather History for CYTH - March, 2013

Change the Weather History Date:

Saturday, March 16, 2013

  Actual Average Record
Temperature  
Mean Temperature -9 °F -  
Max Temperature 2 °F 31 °F 31 °F (2017)
Min Temperature -20 °F 8 °F -25 °F (2005)
Degree Days  
Heating Degree Days 74    
Moisture  
Dew Point -25 °F    
Average Humidity 48    
Maximum Humidity 58    
Minimum Humidity 23    
Precipitation  
Precipitation 0.00 in 0.03 in - ()
Sea Level Pressure  
Sea Level Pressure 30.21 in    
Wind  
Wind Speed 11 mph ()    
Max Wind Speed 23 mph    
Max Gust Speed 30 mph    
Visibility 14.8 miles    
Events Snow    
Averages and records for this station are not official NWS values.
T = Trace of Precipitation, MM = Missing Value Source: Averaged Metar Reports

Daily Weather History Graph

Daily Weather History Graph

Search for Another Location

Airport or City:

Trip Planner

Search our weather history database for the weather conditions in past years. The results will help you decide how hot, cold, wet, or windy it might be!

Date:

Astronomy

Mar. 16, 2013 Rise Set
Actual Time 7:43 AM CDT 7:37 PM CDT
Civil Twilight 7:06 AM CDT 8:14 PM CDT
Nautical Twilight 6:23 AM CDT 8:58 PM CDT
Astronomical Twilight 5:37 AM CDT 9:44 PM CDT
Moon 9:19 AM CDT (3/16) 12:43 AM CDT (3/16)
Length of Visible Light 13h 08m
Length of Day
11h 54m
Waxing Crescent, 23% of the Moon is Illuminated
Mar 16
Waxing Crescent
Mar 19
First Quarter
Mar 27
Full
Apr 2
Last Quarter
Apr 10
New

Hourly Weather History & Observations

Time (CDT) Temp. Windchill Dew Point Humidity Pressure Visibility Wind Dir Wind Speed Gust Speed Precip Events Conditions
12:00 AM -13.0 °F -28.6 °F -25.6 °F 53% 30.22 in 15.0 mi WNW 6.9 mph - N/A   Clear
1:00 AM -13 °F - -27 °F 32% 30.21 in 15 mi NW 9.2 mph - -  
1:00 AM -13.0 °F -31.3 °F -27.4 °F 49% 30.21 in 15.0 mi NW 9.2 mph - N/A   Clear
2:00 AM -18.4 °F -37.9 °F -29.2 °F 58% 30.20 in 15.0 mi WNW 9.2 mph - N/A   Scattered Clouds
3:00 AM -18.4 °F -37.9 °F -29.2 °F 58% 30.19 in 15.0 mi West 9.2 mph - N/A   Partly Cloudy
4:00 AM -18.4 °F -39.1 °F -29.2 °F 58% 30.19 in 15.0 mi West 10.4 mph - N/A   Clear
5:00 AM -20.2 °F -42.4 °F -31.0 °F 58% 30.19 in 15.0 mi West 11.5 mph - N/A   Clear
6:00 AM -20.2 °F -40.1 °F -31.0 °F 58% 30.18 in 15.0 mi WNW 9.2 mph - N/A   Clear
7:00 AM -21 °F - -31 °F 41% 30.19 in 15 mi WNW 11.5 mph - -   Scattered Clouds
7:00 AM -20.2 °F -42.4 °F -31.0 °F 58% 30.19 in 15.0 mi WNW 11.5 mph - N/A   Partly Cloudy
8:00 AM -20.2 °F -44.4 °F -31.0 °F 58% 30.19 in 10.0 mi WNW 13.8 mph - N/A Snow Light Snow
8:47 AM - - - N/A% - 15.0 mi WNW 13.8 mph - N/A   Partly Cloudy
9:00 AM -20.2 °F -46.0 °F -31.0 °F 58% 30.20 in 15.0 mi WNW 16.1 mph 21.9 mph N/A Snow Low Drifting Snow
10:00 AM -18.4 °F -42.1 °F -29.2 °F 58% 30.21 in 15.0 mi NW 13.8 mph 23.0 mph N/A Snow Low Drifting Snow
11:00 AM -14.8 °F -39.8 °F -27.4 °F 53% 30.23 in 15.0 mi NW 17.3 mph - N/A Snow Low Drifting Snow
12:00 PM -11.2 °F -33.7 °F -25.6 °F 49% 30.24 in 15.0 mi WNW 15.0 mph - N/A Snow Low Drifting Snow
1:00 PM -8 °F - -23 °F 30% 30.24 in 15 mi WNW 15.0 mph - - Snow Low Drifting Snow
1:00 PM -7.6 °F -29.1 °F -23.8 °F 45% 30.24 in 15.0 mi WNW 15.0 mph 20.7 mph N/A Snow Low Drifting Snow
2:00 PM -4.0 °F -28.6 °F -20.2 °F 46% 30.24 in 15.0 mi WNW 23.0 mph - N/A Snow Low Drifting Snow
3:00 PM -0.4 °F -22.3 °F -18.4 °F 43% 30.24 in 15.0 mi West 19.6 mph 25.3 mph N/A Snow Low Drifting Snow
4:00 PM 1.4 °F -21.0 °F -18.4 °F 39% 30.23 in 15.0 mi West 21.9 mph 29.9 mph N/A Snow Low Drifting Snow
5:00 PM 3.2 °F -18.1 °F -16.6 °F 39% 30.24 in 15.0 mi WNW 20.7 mph - N/A Snow Low Drifting Snow
6:00 PM 3.2 °F -15.9 °F -16.6 °F 39% 30.23 in 15.0 mi West 16.1 mph 27.6 mph N/A Snow Low Drifting Snow
7:00 PM 2 °F - -18 °F 23% 30.21 in 15 mi WNW 13.8 mph - - Snow Low Drifting Snow
7:00 PM 1.4 °F -16.9 °F -16.6 °F 43% 30.21 in 15.0 mi West 13.8 mph 20.7 mph N/A Snow Low Drifting Snow
8:00 PM -2.2 °F -18.9 °F -18.4 °F 46% 30.20 in 15.0 mi West 10.4 mph - N/A Snow Low Drifting Snow
9:00 PM -4.0 °F -22.1 °F -20.2 °F 46% 30.20 in 15.0 mi West 11.5 mph - N/A Snow Low Drifting Snow
10:00 PM -5.8 °F -22.4 °F -20.2 °F 50% 30.21 in 15.0 mi West 9.2 mph - N/A Snow Low Drifting Snow
11:00 PM -7.6 °F -23.4 °F -22.0 °F 50% 30.21 in 15.0 mi West 8.1 mph - N/A   Clear